EW9394 Weather Reports


time (UTC)temp
C
wind
direction
speed
KPH
gust
KPH
rain 1hr
cm
rain 24hr
cm
rain mn
cm
humidity
%
barometer
mb
20260507092804 11 276 0.0 0.0 0.00 0.00 0.00 94 1019.4
20260507092300 11 277 0.0 0.0 0.00 0.00 0.00 94 1019.5
20260507091756 11 277 0.0 0.0 0.00 0.00 0.00 93 1019.5
20260507091253 11 278 1.6 1.6 0.00 0.00 0.00 93 1019.4
20260507090753 11 278 0.0 0.0 0.00 0.00 0.00 93 1019.2
20260507090250 11 279 0.0 0.0 0.00 0.00 0.00 93 1019.4
20260507085747 11 282 0.0 0.0 0.00 0.00 0.00 92 1019.5
20260507085244 12 289 0.0 0.0 0.00 0.00 0.00 92 1019.3
20260507084742 12 293 0.0 1.6 0.00 0.00 0.00 91 1019.4
20260507084238 12 296 0.0 0.0 0.00 0.00 0.00 91 1019.2
20260507083735 12 299 0.0 0.0 0.00 0.00 0.00 90 1019.3
20260507083232 12 304 0.0 0.0 0.00 0.00 0.00 90 1019.1
20260507082728 12 310 0.0 0.0 0.00 0.00 0.00 89 1019.3
20260507082224 12 317 0.0 0.0 0.00 0.00 0.00 89 1019.2
20260507081721 12 324 0.0 1.6 0.00 0.00 0.00 89 1019.4
20260507081217 12 356 1.6 1.6 0.00 0.00 0.00 89 1019.1
20260507080714 12 74 0.0 0.0 0.00 0.00 0.00 89 1019.1
20260507080210 12 66 0.0 0.0 0.00 0.00 0.00 88 1018.9
20260507075705 12 339 1.6 1.6 0.00 0.00 0.00 88 1019.2
20260507075202 12 26 0.0 0.0 0.00 0.00 0.00 88 1019.1
20260507074658 12 111 1.6 1.6 0.00 0.00 0.00 88 1018.7
20260507074157 12 86 0.0 0.0 0.00 0.00 0.00 89 1018.7
20260507073653 12 104 0.0 1.6 0.00 0.00 0.00 89 1018.9
20260507073149 12 71 0.0 1.6 0.00 0.00 0.00 89 1018.8
20260507072647 12 77 1.6 3.2 0.00 0.00 0.00 89 1019.0
20260507072144 12 56 0.0 1.6 0.00 0.00 0.00 89 1018.8
20260507071642 12 349 0.0 0.0 0.00 0.00 0.00 89 1019.0
20260507071138 13 124 0.0 0.0 0.00 0.00 0.00 89 1018.7
20260507070635 13 117 0.0 1.6 0.00 0.00 0.00 89 1018.7
20260507070132 13 107 0.0 1.6 0.00 0.00 0.00 89 1018.8
20260507065628 13 110 0.0 1.6 0.00 0.00 0.00 88 1018.9
20260507065125 13 91 0.0 0.0 0.00 0.00 0.00 88 1018.9
20260507064623 13 77 1.6 1.6 0.00 0.00 0.00 88 1018.8
20260507064121 13 72 0.0 0.0 0.00 0.00 0.00 87 1018.9
20260507063618 13 76 0.0 0.0 0.00 0.00 0.00 87 1018.9
20260507063115 13 66 0.0 0.0 0.00 0.00 0.00 87 1018.5
20260507062612 13 75 0.0 0.0 0.00 0.00 0.00 87 1018.5
20260507062110 13 89 0.0 1.6 0.00 0.00 0.00 86 1018.6
20260507061607 13 66 1.6 1.6 0.00 0.00 0.00 86 1018.8
20260507061105 13 63 0.0 1.6 0.00 0.00 0.00 86 1018.8
20260507060603 13 67 0.0 1.6 0.00 0.00 0.00 85 1018.6
20260507060059 13 66 1.6 3.2 0.00 0.00 0.00 85 1018.6
20260507055554 13 83 0.0 0.0 0.00 0.00 0.00 84 1018.7
20260507055051 13 74 0.0 1.6 0.00 0.00 0.00 85 1018.6
20260507054547 13 83 1.6 3.2 0.00 0.00 0.00 85 1018.8
20260507054044 13 85 1.6 1.6 0.00 0.00 0.00 85 1018.6
20260507053542 13 88 0.0 0.0 0.00 0.00 0.00 85 1018.7
20260507053040 13 61 1.6 1.6 0.00 0.00 0.00 84 1018.5
20260507052537 13 44 1.6 3.2 0.00 0.00 0.00 85 1018.6
20260507052034 14 76 1.6 1.6 0.00 0.00 0.00 86 1018.7
20260507051532 14 77 1.6 1.6 0.00 0.00 0.00 85 1018.8
20260507051028 14 62 1.6 3.2 0.00 0.00 0.00 85 1019.0
20260507050525 14 91 1.6 1.6 0.00 0.00 0.00 85 1018.7
20260507050022 14 80 0.0 0.0 0.00 0.41 0.41 84 1018.6
20260507045518 15 132 1.6 1.6 0.00 0.41 0.41 84 1018.8
20260507045016 15 149 0.0 1.6 0.00 0.41 0.41 83 1018.9
20260507044512 15 64 1.6 3.2 0.00 0.41 0.41 83 1018.6
20260507044009 15 163 0.0 3.2 0.00 0.41 0.41 83 1018.7
20260507043505 15 146 1.6 1.6 0.00 0.41 0.41 84 1018.7
20260507043001 15 91 1.6 1.6 0.00 0.41 0.41 84 1018.8
20260507042458 15 72 4.8 8.0 0.00 0.41 0.41 83 1018.8
20260507041954 15 347 3.2 4.8 0.00 0.41 0.41 83 1018.9
20260507041451 15 58 1.6 3.2 0.00 0.41 0.41 83 1019.0
20260507040948 15 79 1.6 1.6 0.00 0.41 0.41 83 1019.3
20260507040443 15 17 0.0 0.0 0.00 0.41 0.41 83 1019.1
20260507035939 15 23 1.6 1.6 0.00 0.41 0.41 83 1019.2
20260507035436 15 73 3.2 3.2 0.00 0.41 0.41 83 1019.1
20260507034933 15 330 1.6 1.6 0.00 0.41 0.41 83 1019.2
20260507034430 15 348 4.8 4.8 0.00 0.41 0.41 83 1019.1
20260507033928 15 315 3.2 3.2 0.00 0.41 0.41 83 1019.1
20260507033425 15 340 3.2 3.2 0.00 0.41 0.41 83 1018.9
20260507032922 15 58 6.4 9.7 0.00 0.41 0.41 83 1018.9
20260507032419 15 328 3.2 4.8 0.00 0.41 0.41 83 1018.8
20260507031915 15 312 3.2 3.2 0.00 0.41 0.41 84 1019.0
20260507031412 15 281 3.2 3.2 0.00 0.41 0.41 84 1019.0
20260507030909 15 299 0.0 0.0 0.00 0.41 0.41 84 1018.7
20260507030406 15 306 1.6 3.2 0.00 0.41 0.41 83 1018.7
20260507025903 15 31 0.0 0.0 0.00 0.41 0.41 83 1018.4
20260507025400 15 9 0.0 1.6 0.00 0.41 0.41 83 1018.4
20260507024858 15 297 1.6 3.2 0.00 0.41 0.41 84 1018.3
20260507024355 15 335 3.2 4.8 0.00 0.41 0.41 84 1018.1
20260507023851 15 17 0.0 1.6 0.00 0.41 0.41 84 1017.9
20260507023348 15 316 0.0 0.0 0.00 0.41 0.41 84 1018.1
20260507022845 15 105 0.0 1.6 0.00 0.41 0.41 84 1017.9
20260507022342 15 29 1.6 1.6 0.00 0.41 0.41 84 1017.7
20260507021837 15 355 0.0 1.6 0.00 0.41 0.41 84 1017.8
20260507021333 15 34 0.0 1.6 0.00 0.41 0.41 84 1017.8
20260507020831 15 71 0.0 0.0 0.00 0.41 0.41 85 1017.4
20260507020328 15 58 1.6 1.6 0.00 0.41 0.41 85 1017.5
20260507015825 15 72 1.6 1.6 0.00 0.41 0.41 85 1017.2
20260507015323 15 299 0.0 0.0 0.00 0.41 0.41 85 1017.3
20260507014820 15 31 4.8 4.8 0.00 0.41 0.41 85 1017.0
20260507014316 15 351 3.2 8.0 0.00 0.41 0.41 85 1017.1
20260507013812 15 310 1.6 8.0 0.00 0.41 0.41 86 1016.9
20260507013309 15 30 3.2 3.2 0.00 0.41 0.41 86 1017.0
20260507012807 15 98 1.6 1.6 0.00 0.41 0.41 86 1016.8
20260507012306 15 283 1.6 1.6 0.00 0.41 0.41 86 1016.6
20260507011800 15 270 0.0 0.0 0.00 0.41 0.41 86 1016.8
20260507011256 15 56 0.0 1.6 0.00 0.41 0.41 86 1016.6
20260507010756 15 34 3.2 3.2 0.00 0.41 0.41 86 1016.4
20260507010252 15 300 0.0 1.6 0.00 0.41 0.41 86 1016.3
20260507005750 15 304 1.6 3.2 0.00 0.41 0.41 86 1016.4
20260507005246 15 278 0.0 0.0 0.00 0.41 0.41 86 1016.5
20260507004743 15 28 0.0 1.6 0.00 0.41 0.41 86 1016.4
20260507004241 15 326 1.6 1.6 0.00 0.41 0.41 86 1016.4
20260507003736 15 309 0.0 1.6 0.00 0.41 0.41 86 1016.2
20260507003232 15 32 0.0 0.0 0.00 0.41 0.41 85 1016.0
20260507002728 15 284 1.6 1.6 0.00 0.41 0.41 85 1016.1
20260507002224 15 68 1.6 3.2 0.00 0.41 0.41 85 1015.8
20260507001721 15 23 1.6 1.6 0.00 0.41 0.41 85 1016.1
20260507001218 15 7 0.0 1.6 0.00 0.41 0.41 85 1016.1
20260507000715 15 42 3.2 3.2 0.00 0.41 0.41 85 1015.8
20260507000212 15 351 4.8 4.8 0.00 0.41 0.41 85 1015.6
20260506235708 15 78 0.0 1.6 0.00 0.41 0.41 84 1015.7
20260506235203 15 156 0.0 1.6 0.00 0.41 0.41 84 1015.6
20260506234700 15 40 1.6 3.2 0.00 0.41 0.41 84 1015.8
20260506234157 15 279 3.2 4.8 0.00 0.41 0.41 84 1015.9
20260506233655 15 24 0.0 1.6 0.00 0.41 0.41 84 1016.0
20260506233151 15 26 0.0 3.2 0.00 0.41 0.41 84 1015.9
20260506232647 15 354 3.2 3.2 0.00 0.41 0.41 83 1015.7
20260506232143 15 55 1.6 1.6 0.00 0.41 0.41 83 1015.7
20260506231640 15 14 1.6 3.2 0.00 0.41 0.41 82 1015.4
20260506231139 16 262 0.0 1.6 0.00 0.41 0.41 81 1015.3
20260506230635 16 60 1.6 1.6 0.00 0.41 0.41 81 1015.3
20260506230132 16 298 3.2 3.2 0.00 0.41 0.41 81 1015.4
20260506225628 16 290 4.8 4.8 0.00 0.41 0.41 81 1014.9
20260506225125 15 60 4.8 9.7 0.00 0.41 0.41 81 1015.2
20260506224622 15 342 0.0 1.6 0.00 0.41 0.41 82 1015.3
20260506224118 15 313 1.6 1.6 0.00 0.41 0.41 82 1015.7
20260506223614 15 21 4.8 8.0 0.00 0.41 0.41 81 1015.2
20260506223110 15 101 0.0 0.0 0.00 0.41 0.41 82 1015.4
20260506222608 15 20 6.4 8.0 0.00 0.41 0.41 81 1015.4
20260506222104 15 312 4.8 4.8 0.00 0.41 0.41 81 1015.4
20260506221602 15 331 1.6 3.2 0.00 0.41 0.41 81 1015.6
20260506221100 15 24 4.8 11.3 0.00 0.41 0.41 80 1015.2
20260506220555 15 342 6.4 8.0 0.00 0.41 0.41 80 1014.7
20260506220051 16 5 4.8 8.0 0.00 0.41 0.41 80 1014.9
20260506215548 16 352 0.0 1.6 0.00 0.41 0.41 80 1015.1
20260506215044 16 294 1.6 1.6 0.00 0.41 0.41 80 1014.7
20260506214541 16 358 0.0 0.0 0.00 0.41 0.41 80 1015.4
20260506214038 16 309 3.2 3.2 0.00 0.41 0.41 80 1014.9
20260506213536 16 298 4.8 11.3 0.00 0.41 0.41 80 1015.0
20260506213033 16 0 4.8 4.8 0.00 0.41 0.41 79 1015.1
20260506212530 16 275 3.2 3.2 0.00 0.41 0.41 79 1015.1
20260506212025 16 280 4.8 4.8 0.00 0.41 0.41 78 1015.0
20260506211521 16 19 1.6 3.2 0.00 0.41 0.41 77 1015.1
20260506211018 16 254 0.0 1.6 0.00 0.41 0.41 78 1015.3
20260506210515 16 333 1.6 1.6 0.00 0.41 0.41 79 1015.1
20260506210011 16 278 3.2 4.8 0.00 0.41 0.41 80 1015.3
20260506205508 16 310 1.6 1.6 0.00 0.41 0.41 80 1015.3
20260506205003 16 262 4.8 4.8 0.00 0.41 0.41 80 1015.4
20260506204502 16 300 4.8 4.8 0.00 0.41 0.41 79 1015.4
20260506203958 16 298 3.2 3.2 0.00 0.41 0.41 79 1015.5
20260506203456 16 296 4.8 8.0 0.00 0.41 0.41 79 1015.5
20260506202953 16 337 1.6 1.6 0.00 0.41 0.41 80 1015.4
20260506202450 15 267 0.0 1.6 0.00 0.41 0.41 81 1015.5
20260506201946 15 340 3.2 3.2 0.00 0.41 0.41 81 1015.8
20260506201444 15 317 3.2 3.2 0.00 0.41 0.41 81 1015.7
20260506200940 15 293 9.7 12.9 0.00 0.41 0.41 81 1016.0
20260506200437 15 275 4.8 11.3 0.00 0.41 0.41 82 1016.1
20260506195933 15 232 3.2 3.2 0.00 0.41 0.41 82 1016.0
20260506195430 15 15 3.2 3.2 0.00 0.41 0.41 84 1015.9
20260506194927 15 34 4.8 4.8 0.00 0.41 0.41 84 1015.6
20260506194424 15 299 4.8 8.0 0.00 0.41 0.41 85 1015.9
20260506193921 15 317 3.2 4.8 0.00 0.41 0.41 86 1015.9
20260506193418 14 291 1.6 1.6 0.00 0.41 0.41 87 1016.1
20260506192914 14 321 4.8 8.0 0.00 0.41 0.41 88 1016.4
20260506192411 13 300 1.6 1.6 0.00 0.41 0.41 88 1016.2
20260506191908 13 292 1.6 1.6 0.00 0.41 0.41 88 1016.5
20260506191404 13 301 6.4 8.0 0.00 0.41 0.41 88 1016.3
20260506190902 13 319 3.2 3.2 0.00 0.41 0.41 88 1016.3
20260506190358 13 317 3.2 3.2 0.00 0.41 0.41 88 1016.2
20260506185855 13 341 3.2 4.8 0.00 0.41 0.41 89 1016.3
20260506185352 13 305 0.0 1.6 0.00 0.41 0.41 89 1016.4
20260506184849 13 344 1.6 1.6 0.00 0.41 0.41 89 1016.4
20260506184346 13 343 3.2 4.8 0.00 0.41 0.41 89 1016.0
20260506183843 13 356 0.0 1.6 0.00 0.41 0.41 91 1015.8
20260506183338 13 123 0.0 0.0 0.00 0.41 0.41 91 1015.6
20260506182836 13 179 1.6 3.2 0.00 0.41 0.41 93 1015.3
20260506182333 13 296 0.0 1.6 0.00 0.41 0.41 94 1014.8
20260506181831 12 294 1.6 1.6 0.00 0.41 0.41 95 1014.6
20260506181329 13 262 3.2 3.2 0.00 0.41 0.41 96 1014.6
20260506180825 12 277 1.6 3.2 0.00 0.41 0.41 96 1014.9
20260506180321 12 13 9.7 14.5 0.00 0.41 0.41 96 1014.6
20260506175818 12 26 1.6 3.2 0.00 0.41 0.41 97 1014.7
20260506175315 12 353 1.6 3.2 0.00 0.41 0.41 97 1015.0
20260506174812 12 137 3.2 4.8 0.00 0.41 0.41 97 1015.4
20260506174309 12 9 4.8 9.7 0.00 0.41 0.41 97 1015.5
20260506173807 12 300 3.2 3.2 0.00 0.41 0.41 97 1015.6
20260506173303 12 231 3.2 4.8 0.00 0.41 0.41 97 1015.9
20260506172800 12 13 0.0 1.6 0.13 0.41 0.41 97 1016.0
20260506172257 12 12 1.6 3.2 0.13 0.41 0.41 97 1015.9
20260506171754 12 86 0.0 0.0 0.00 0.38 0.38 97 1015.9
20260506171251 12 342 1.6 1.6 0.00 0.38 0.38 97 1015.9
20260506170749 12 273 0.0 1.6 0.00 0.38 0.38 97 1016.0
20260506170245 11 329 16.1 17.7 0.00 0.38 0.38 96 1015.8
20260506165744 11 22 9.7 14.5 0.00 0.38 0.38 96 1015.3
20260506165240 11 279 4.8 4.8 0.00 0.38 0.38 97 1015.6
20260506164737 12 24 4.8 4.8 0.00 0.38 0.38 96 1015.9
20260506164234 12 355 4.8 8.0 0.00 0.38 0.38 96 1015.8
20260506163731 12 336 8.0 12.9 0.00 0.38 0.38 96 1016.0
20260506163226 12 306 4.8 8.0 0.00 0.38 0.38 96 1016.1
20260506162722 12 293 0.0 1.6 0.00 0.38 0.38 97 1016.2
20260506162220 13 328 1.6 1.6 0.00 0.38 0.38 96 1016.0
20260506161712 12 313 1.6 3.2 0.00 0.38 0.38 97 1016.3
20260506161209 12 160 4.8 8.0 0.00 0.38 0.38 96 1016.4
20260506160706 12 322 0.0 0.0 0.00 0.38 0.38 96 1016.1
20260506160203 12 194 1.6 3.2 0.00 0.38 0.38 95 1016.4
20260506155701 12 303 3.2 3.2 0.00 0.38 0.38 95 1016.0
20260506155158 12 345 1.6 3.2 0.00 0.38 0.38 95 1015.4
20260506153306 12 258 1.6 1.6 0.30 0.05 0.05 88 1018.0
20260506152802 12 259 1.6 1.6 0.00 0.00 0.00 87 1017.6
20260506152300 12 275 1.6 1.6 0.00 0.00 0.00 87 1017.4
20260506151759 12 323 1.6 1.6 0.00 0.00 0.00 86 1017.4
20260506151255 12 252 3.2 4.8 0.00 0.00 0.00 86 1016.6
20260506150751 12 0 1.6 4.8 0.00 0.00 0.00 86 1016.8
20260506150249 12 287 1.6 3.2 0.00 0.00 0.00 85 1016.3
20260506145745 12 1 1.6 3.2 0.00 0.00 0.00 85 1016.3
20260506145242 12 305 1.6 1.6 0.00 0.00 0.00 85 1015.5
20260506144740 12 326 6.4 8.0 0.00 0.00 0.00 84 1015.7
20260506144236 12 322 3.2 4.8 0.00 0.00 0.00 84 1016.1
20260506143734 12 306 4.8 8.0 0.00 0.00 0.00 84 1016.2
20260506143231 12 301 1.6 3.2 0.00 0.00 0.00 84 1016.2
20260506142730 12 42 1.6 3.2 0.00 0.00 0.00 84 1016.1
20260506142227 12 355 0.0 0.0 0.00 0.00 0.00 85 1015.9
20260506141725 12 326 8.0 12.9 0.00 0.00 0.00 85 1015.8
20260506141223 12 346 4.8 8.0 0.00 0.00 0.00 85 1015.8
20260506140721 12 353 4.8 8.0 0.00 0.00 0.00 86 1015.7
20260506140217 12 357 8.0 11.3 0.00 0.00 0.00 86 1015.5
20260506135714 12 228 4.8 8.0 0.00 0.00 0.00 87 1015.5
20260506135211 12 21 1.6 3.2 0.00 0.00 0.00 87 1015.2
20260506134707 12 320 1.6 1.6 0.00 0.00 0.00 88 1015.3
20260506134204 12 315 8.0 11.3 0.00 0.00 0.00 88 1015.2
20260506133701 12 353 9.7 14.5 0.00 0.00 0.00 87 1015.2
20260506133157 12 329 3.2 4.8 0.00 0.00 0.00 87 1015.1
20260506132655 12 316 4.8 9.7 0.00 0.00 0.00 87 1015.0
20260506132151 12 255 1.6 1.6 0.00 0.00 0.00 87 1014.9
20260506131649 12 334 3.2 4.8 0.00 0.00 0.00 86 1015.1
20260506131145 12 345 4.8 8.0 0.00 0.00 0.00 86 1014.7
20260506130642 12 327 3.2 4.8 0.00 0.00 0.00 86 1015.0
20260506130139 12 11 4.8 8.0 0.00 0.00 0.00 86 1014.9
20260506125637 12 268 4.8 4.8 0.00 0.00 0.00 86 1015.0
20260506125135 12 14 4.8 9.7 0.00 0.00 0.00 86 1014.8
20260506124633 12 223 3.2 8.0 0.00 0.00 0.00 86 1014.6
20260506124131 12 300 6.4 11.3 0.00 0.00 0.00 85 1014.1
20260506123628 12 339 1.6 3.2 0.00 0.00 0.00 85 1014.4
20260506123127 12 291 11.3 14.5 0.00 0.00 0.00 84 1014.4
20260506122623 12 355 11.3 14.5 0.00 0.00 0.00 84 1014.5
20260506122120 12 353 3.2 4.8 0.00 0.00 0.00 83 1014.3
20260506121618 12 265 6.4 8.0 0.00 0.00 0.00 83 1014.4
20260506121114 12 352 6.4 11.3 0.00 0.00 0.00 83 1014.3
20260506120612 12 310 4.8 8.0 0.00 0.00 0.00 83 1014.1
20260506120109 12 330 6.4 11.3 0.00 0.00 0.00 83 1014.1
20260506115608 12 275 3.2 3.2 0.00 0.00 0.00 82 1014.0
20260506115106 12 321 8.0 9.7 0.00 0.00 0.00 82 1013.8
20260506114602 13 267 4.8 8.0 0.00 0.00 0.00 81 1013.9
20260506114101 13 337 4.8 8.0 0.00 0.00 0.00 81 1013.5
20260506113558 12 330 4.8 4.8 0.00 0.00 0.00 81 1013.5
20260506113055 12 288 3.2 3.2 0.00 0.00 0.00 81 1013.3
20260506112552 12 8 6.4 9.7 0.00 0.00 0.00 80 1013.6
20260506112049 13 341 8.0 9.7 0.00 0.00 0.00 80 1013.5
20260506111547 13 277 6.4 9.7 0.00 0.00 0.00 80 1013.3
20260506111044 13 317 11.3 14.5 0.00 0.00 0.00 80 1013.3
20260506110542 13 281 11.3 14.5 0.00 0.00 0.00 79 1013.2
20260506110039 13 287 6.4 8.0 0.00 0.00 0.00 79 1013.1
20260506105535 13 339 4.8 4.8 0.00 0.00 0.00 79 1013.1
20260506105032 13 357 4.8 8.0 0.00 0.00 0.00 79 1012.9
20260506104530 13 306 6.4 9.7 0.00 0.00 0.00 79 1012.9
20260506104028 13 263 4.8 4.8 0.00 0.00 0.00 79 1012.7
20260506103525 13 304 6.4 9.7 0.00 0.00 0.00 78 1012.7
20260506103022 14 335 4.8 9.7 0.00 0.00 0.00 77 1012.4
20260506102520 14 341 4.8 8.0 0.00 0.00 0.00 77 1012.3
20260506102017 14 311 6.4 8.0 0.00 0.00 0.00 77 1012.3
20260506101513 14 290 8.0 11.3 0.00 0.00 0.00 76 1012.0
20260506101011 14 352 4.8 4.8 0.00 0.00 0.00 77 1011.9
20260506100509 14 283 3.2 4.8 0.00 0.00 0.00 77 1012.0
20260506100007 15 309 1.6 1.6 0.00 0.00 0.00 77 1012.1
20260506095505 15 330 6.4 11.3 0.00 0.00 0.00 77 1012.1
20260506095000 15 328 3.2 3.2 0.00 0.00 0.00 77 1012.2
20260506094459 14 264 0.0 0.0 0.00 0.00 0.00 78 1012.0
20260506093956 15 310 4.8 4.8 0.00 0.00 0.00 78 1011.9
20260506093455 15 11 3.2 3.2 0.00 0.00 0.00 77 1012.0
20260506092952 15 275 0.0 0.0 0.00 0.00 0.00 78 1011.9